CZ-6A DEB

Satellite information

Favourite Embed

Satellite Type and Status

DEBRISIN ORBIT

Key statistics

Satellite CZ-6A DEB at a glance.

Uptime

1084

Days in orbit

Revolutions

≈ 14.1

Per day

Orbit

SSO

Sun Synchronous Orbit

Inclination

98.8

Latest

Satellite identification and parameters

Extended collection of information and parameters for CZ-6A DEB.

Object identification

Identified? True

Debris? True

Object name: CZ-6A DEB

International designator: 2022-151KE

Object number (NORAD): 54526

Object ID (CCSDS): 54526

Country: PEOPLES REPUBLIC OF CHINA (PRC)

Current information (Y/N): Y

RCS size: MEDIUM

Orbital parameters

Period: 102.136 minutes

Inclination: 98.8339 deg

SMA: 7237.903 km

Apoapsis: 898.636 km

Periapsis: 820.901 km

RAAN: 299.3168 deg

Eccentricy: 0.00536999

Argument of periapsis: 296.2445 deg

Mean anomaly: 63.3212 deg

Mean motion: 14.09884727 rev/day

Mean motion (dot): 0.00000663 rev/day2

B* drag term: 0.00039642885 1/REarth

Two-line elements (TLE)

Creation date: Oct. 28, 2025, 7:11 p.m.

Reference frame: TEME

Reference center: EARTH

Epoch: Oct. 28, 2025, 12:08 p.m. UTC

TLE line 0: 0 CZ-6A DEB

TLE line 1: 1 54526U 22151KE 25301.50620315 .00000663 00000-0 39643-3 0 9999

TLE line 2: 2 54526 98.8339 299.3168 0053700 296.2445 63.3212 14.09884727152048

Live tracking on map

Real-time ground track for satellite CZ-6A DEB.

In-orbit conjunctions

A list of the most updated potential collisions computed for object CZ-6A DEB.

Target Orbit TCA Probability of collision Miss distance Type
FENGYUN 1C DEB SSO 2025-10-12 17:34:17 0.0005057074 91.0 (m) DEBRIS
P/L 153 DEB LEO 2025-04-20 11:16:49 0.0002864102 82.0 (m) DEBRIS

Associated space launch

Chinese satellite reported for atmospheric/ocean/environmental/spatial parameter research purposes, details TBD.

CZ-6A DEB was lifted into orbit during the mission ‘Long March 6A | Yunhai 3’, on board a Long March 6A space rocket.

The launch took place on Nov. 11, 2022, 10:52 p.m. from Launch Complex 9A.

For more information about the launch, click the button.

Launch to space Long March 6A | Yunhai 3
Long March 6A | Yunhai 3

Agency: N/A

Status: Launch Successful

Launch date: Nov. 11, 2022, 10:52 p.m. UTC

Rocket: Long March 6A

Launch pad: Launch Complex 9A

Location: Taiyuan Satellite Launch Center, People's Republic of China

...

Latest news about this satellite

There are no fresh news available about this satellite. Check back as we update our databases every day.


Newsletter sign-up

Weekly statistics, charts and insights to help you stay on top of the space industry.